Location: Cathedral Gorge
(37.8167°N, 114.4167°W)
Time: 15:41:59
(UTC-07:00)

Hubble Space Telescope - Visible Passes

Search period start: 23 October 2017 00:00
Search period end: 02 November 2017 00:00
Orbit: 537 x 541 km, 28.5° (Epoch: 23 October)

Date Brightness Start Highest point End Pass type
(mag) Time Alt. Az. Time Alt. Az. Time Alt. Az.
23 Oct 2.8 18:29:48 10° SSW 18:32:30 17° SSE 18:35:11 10° SE visible
23 Oct 3.2 20:09:54 10° SW 20:11:13 16° SW 20:11:13 16° SW visible
24 Oct 2.8 18:19:18 10° SW 18:22:12 19° S 18:25:07 10° SE visible
24 Oct 2.9 19:59:39 10° SW 20:01:36 19° SSW 20:01:36 19° SSW visible
25 Oct 2.7 18:08:51 10° SW 18:11:55 20° S 18:15:00 10° SE visible
25 Oct 2.7 19:49:26 10° SW 19:52:00 20° SSW 19:52:00 20° SSW visible
26 Oct 2.7 19:39:16 10° SW 19:42:17 20° S 19:42:24 20° S visible
27 Oct 2.8 19:29:09 10° SW 19:32:00 18° S 19:32:51 17° S visible
28 Oct 3.0 19:19:05 10° SW 19:21:42 16° SSW 19:23:21 13° SSE visible
29 Oct 3.3 19:09:08 10° SW 19:11:24 14° SSW 19:13:40 10° SSE visible
30 Oct 3.4 18:59:21 10° SW 19:01:05 12° SSW 19:02:48 10° S visible
31 Oct 3.7 18:50:11 10° SSW 18:50:45 10° SSW 18:51:20 10° SSW visible
